This is the latest recevied weather packets stored in our database for station/object NY3Q. If no packets are shown the sender has not sent any weather packets the latest 10 day(s).
| Time | Temp. | Humidity | Pressure | Rain* | Wind** | Luminosity | Snow |
|---|---|---|---|---|---|---|---|
| 1778022625 | 23.89° C | 60% | 1015.6 hPa | 0 mm | - | 60 W/m² | - |
| 1778022322 | 23.89° C | 59% | 1015.5 hPa | 0 mm | - | 72 W/m² | - |
| 1778022018 | 24.44° C | 59% | 1015.7 hPa | 0 mm | - | 83 W/m² | - |
| 1778021715 | 24.44° C | 58% | 1015.7 hPa | 0 mm | - | 69 W/m² | - |
| 1778021411 | 25° C | 57% | 1015.8 hPa | 0 mm | - | 103 W/m² | - |
| 1778021108 | 25° C | 57% | 1015.7 hPa | 0 mm | - | 122 W/m² | - |
| 1778020805 | 25° C | 57% | 1015.7 hPa | 0 mm | - | 135 W/m² | - |
| 1778020502 | 25.56° C | 55% | 1015.5 hPa | 0 mm | - | 146 W/m² | - |
| 1778020198 | 25.56° C | 55% | 1015.6 hPa | 0 mm | - | 163 W/m² | - |
| 1778019895 | 25.56° C | 54% | 1015.8 hPa | 0 mm | - | 181 W/m² | - |
| 1778019590 | 25.56° C | 56% | 1015.6 hPa | 0 mm | - | 199 W/m² | - |
| 1778019288 | 25.56° C | 54% | 1015.6 hPa | 0 mm | - | 215 W/m² | - |
| 1778018985 | 25.56° C | 53% | 1015.6 hPa | 0 mm | - | 213 W/m² | - |
| 1778018682 | 26.11° C | 53% | 1015.7 hPa | 0 mm | - | 211 W/m² | - |
| 1778018380 | 25.56° C | 54% | 1015.8 hPa | 0 mm | - | 228 W/m² | - |
| 1778018078 | 25.56° C | 52% | 1015.8 hPa | 0 mm | - | 268 W/m² | - |
| 1778017775 | 26.11° C | 51% | 1015.8 hPa | 0 mm | - | 281 W/m² | - |
| 1778017473 | 26.11° C | 51% | 1015.5 hPa | 0 mm | - | 276 W/m² | - |
| 1778017170 | 26.11° C | 52% | 1015.8 hPa | 0 mm | - | 313 W/m² | - |
| 1778016868 | 26.11° C | 50% | 1015.7 hPa | 0 mm | - | 325 W/m² | - |
| 1778016563 | 26.67° C | 50% | 1015.7 hPa | 0 mm | - | 338 W/m² | - |
| 1778016261 | 26.67° C | 49% | 1015.8 hPa | 0 mm | - | 348 W/m² | - |
| 1778015957 | 26.67° C | 48% | 1015.7 hPa | 0 mm | - | 361 W/m² | - |
| 1778015655 | 26.11° C | 49% | 1015.8 hPa | 0 mm | - | 376 W/m² | - |
| 1778015350 | 26.11° C | 50% | 1015.7 hPa | 0 mm | - | 392 W/m² | - |
* Rain latest hour (hover to see other rain measurements)
** Current wind speed in m/s (hover to see current wind gust speed)